Year,Month,Day,Hour,Minute,Value (Times are PST for temperature in C)
2008,04,27,13,52,10.60
2008,04,27,13,53,10.60
2008,04,27,13,54,10.60
2008,04,27,13,55,10.70
2008,04,27,13,56,10.70
2008,04,27,13,57,10.60
2008,04,27,13,58,10.60
2008,04,27,13,59,10.60
2008,04,27,14,00,10.60
2008,04,27,14,01,10.50
2008,04,27,14,02,10.50
2008,04,27,14,03,10.40
2008,04,27,14,04,10.40
2008,04,27,14,05,10.40
2008,04,27,14,06,10.40
2008,04,27,14,07,10.50
2008,04,27,14,08,10.60
2008,04,27,14,09,10.60
2008,04,27,14,10,10.60
2008,04,27,14,11,10.70
2008,04,27,14,12,10.70
2008,04,27,14,13,10.80
2008,04,27,14,14,10.80
2008,04,27,14,15,10.90
2008,04,27,14,16,10.90
2008,04,27,14,17,11.00
2008,04,27,14,18,11.00
2008,04,27,14,19,11.00
2008,04,27,14,20,11.00
2008,04,27,14,21,10.90
2008,04,27,14,22,10.90
2008,04,27,14,23,10.90
2008,04,27,14,24,11.00
2008,04,27,14,25,11.10
2008,04,27,14,26,11.20
2008,04,27,14,27,11.20
2008,04,27,14,28,11.30
2008,04,27,14,29,11.30
2008,04,27,14,30,11.30
2008,04,27,14,31,11.30
2008,04,27,14,32,11.30
2008,04,27,14,33,11.30
2008,04,27,14,34,11.20
2008,04,27,14,35,11.20
2008,04,27,14,36,11.20
2008,04,27,14,37,11.20
2008,04,27,14,38,11.20
2008,04,27,14,39,11.20
2008,04,27,14,40,11.20
2008,04,27,14,41,11.30
2008,04,27,14,42,11.30
2008,04,27,14,43,11.40
2008,04,27,14,44,11.40
2008,04,27,14,45,11.50
2008,04,27,14,46,11.60
2008,04,27,14,47,11.60
2008,04,27,14,48,11.60
2008,04,27,14,49,11.70
2008,04,27,14,50,11.80
2008,04,27,14,51,11.90
2008,04,27,14,52,11.90
2008,04,27,14,53,11.90
2008,04,27,14,54,11.90
2008,04,27,14,55,11.90
2008,04,27,14,56,11.90
2008,04,27,14,57,11.90
2008,04,27,14,58,11.90
2008,04,27,14,59,11.90
2008,04,27,15,00,11.90
2008,04,27,15,01,11.90
2008,04,27,15,02,11.90
2008,04,27,15,03,11.90
2008,04,27,15,04,11.90
2008,04,27,15,05,11.90
2008,04,27,15,06,11.90
2008,04,27,15,07,11.80
2008,04,27,15,08,11.80
2008,04,27,15,09,11.80
2008,04,27,15,10,11.80
2008,04,27,15,11,11.80
2008,04,27,15,12,11.80
2008,04,27,15,13,11.80
2008,04,27,15,14,11.80
2008,04,27,15,15,11.80
2008,04,27,15,16,11.80
2008,04,27,15,17,11.80
2008,04,27,15,18,11.80
2008,04,27,15,19,11.80
2008,04,27,15,20,11.80
2008,04,27,15,21,11.80
2008,04,27,15,22,11.80
2008,04,27,15,23,11.90
2008,04,27,15,24,11.90
2008,04,27,15,25,11.90
2008,04,27,15,26,12.00
2008,04,27,15,27,12.00
2008,04,27,15,28,12.10
2008,04,27,15,29,12.10
2008,04,27,15,30,12.10
2008,04,27,15,31,12.10
2008,04,27,15,32,12.00
2008,04,27,15,33,12.00
2008,04,27,15,34,12.00
2008,04,27,15,35,11.90
2008,04,27,15,36,11.90
2008,04,27,15,37,11.90
2008,04,27,15,38,11.80
2008,04,27,15,39,11.80
2008,04,27,15,40,11.80
2008,04,27,15,41,11.80
2008,04,27,15,42,11.80
2008,04,27,15,43,11.80
2008,04,27,15,44,11.90
2008,04,27,15,45,11.90
2008,04,27,15,46,11.90
2008,04,27,15,47,11.90
2008,04,27,15,48,11.90
2008,04,27,15,49,11.90
2008,04,27,15,50,11.90
2008,04,27,15,51,12.00
2008,04,27,15,52,12.00
2008,04,27,15,53,12.00
2008,04,27,15,54,12.00
2008,04,27,15,55,12.00
2008,04,27,15,56,12.00
2008,04,27,15,57,12.10
2008,04,27,15,58,12.10
2008,04,27,15,59,12.10
2008,04,27,16,00,12.10
2008,04,27,16,01,12.00
2008,04,27,16,02,12.00
2008,04,27,16,03,11.90
2008,04,27,16,04,11.90
2008,04,27,16,05,11.90
2008,04,27,16,06,11.90
2008,04,27,16,07,11.90
2008,04,27,16,08,11.90
2008,04,27,16,09,12.00
2008,04,27,16,10,12.00
2008,04,27,16,11,12.00
2008,04,27,16,12,11.90
2008,04,27,16,13,11.80
2008,04,27,16,14,11.80
2008,04,27,16,15,11.70
2008,04,27,16,16,11.70
2008,04,27,16,17,11.70
2008,04,27,16,18,11.70
2008,04,27,16,19,11.70
2008,04,27,16,20,11.70
2008,04,27,16,21,11.70
2008,04,27,16,22,11.70
2008,04,27,16,23,11.70
2008,04,27,16,24,11.70
2008,04,27,16,25,11.70
2008,04,27,16,26,11.70
2008,04,27,16,27,11.70
2008,04,27,16,28,11.70
2008,04,27,16,29,11.60
2008,04,27,16,30,11.60
2008,04,27,16,31,11.60
2008,04,27,16,32,11.60
2008,04,27,16,33,11.70
2008,04,27,16,34,11.70
2008,04,27,16,35,11.70
2008,04,27,16,36,11.70
2008,04,27,16,37,11.70
2008,04,27,16,38,11.70
2008,04,27,16,39,11.70
2008,04,27,16,40,11.70
2008,04,27,16,41,11.70
2008,04,27,16,42,11.70
2008,04,27,16,43,11.70
2008,04,27,16,44,11.70
2008,04,27,16,45,11.60
2008,04,27,16,46,11.60
2008,04,27,16,47,11.60
2008,04,27,16,48,11.50
2008,04,27,16,49,11.50
2008,04,27,16,50,11.50
2008,04,27,16,51,11.40
2008,04,27,16,52,11.40
2008,04,27,16,53,11.40
2008,04,27,16,54,11.40
2008,04,27,16,55,11.30
2008,04,27,16,56,11.30
2008,04,27,16,57,11.20
2008,04,27,16,58,11.20
2008,04,27,16,59,11.20
2008,04,27,17,00,11.10
2008,04,27,17,01,11.10
2008,04,27,17,02,11.10
2008,04,27,17,03,11.10
2008,04,27,17,04,11.10
2008,04,27,17,05,11.10
2008,04,27,17,06,11.10
2008,04,27,17,07,11.10
2008,04,27,17,08,11.10
2008,04,27,17,09,11.10
2008,04,27,17,10,11.10
2008,04,27,17,11,11.10
2008,04,27,17,12,11.10
2008,04,27,17,13,11.10
2008,04,27,17,14,11.10
2008,04,27,17,15,11.20
2008,04,27,17,16,11.20
2008,04,27,17,17,11.20
2008,04,27,17,18,11.20
2008,04,27,17,19,11.20
2008,04,27,17,20,11.20
2008,04,27,17,21,11.20
2008,04,27,17,22,11.20
2008,04,27,17,23,11.20
2008,04,27,17,24,11.20
2008,04,27,17,25,11.30
2008,04,27,17,26,11.20
2008,04,27,17,27,11.20
2008,04,27,17,28,11.20
2008,04,27,17,29,11.20
2008,04,27,17,30,11.20
2008,04,27,17,31,11.20
2008,04,27,17,32,11.20
2008,04,27,17,33,11.20
2008,04,27,17,34,11.20
2008,04,27,17,35,11.20
2008,04,27,17,36,11.10
2008,04,27,17,37,11.10
2008,04,27,17,38,11.10
2008,04,27,17,39,11.10
2008,04,27,17,40,11.10
2008,04,27,17,41,11.10
2008,04,27,17,42,11.00
2008,04,27,17,43,11.00
2008,04,27,17,44,11.00
2008,04,27,17,45,11.00
2008,04,27,17,46,11.10
2008,04,27,17,47,11.10
2008,04,27,17,48,11.10
2008,04,27,17,49,11.10
2008,04,27,17,50,11.10
2008,04,27,17,51,11.10
2008,04,27,17,52,11.10
2008,04,27,17,53,11.10
2008,04,27,17,54,11.10
2008,04,27,17,55,11.10
2008,04,27,17,56,11.10
2008,04,27,17,57,11.00
2008,04,27,17,58,11.00
2008,04,27,17,59,11.00
2008,04,27,18,00,11.00
2008,04,27,18,01,11.00
2008,04,27,18,02,11.00
2008,04,27,18,03,11.00
2008,04,27,18,04,11.00
2008,04,27,18,05,11.00
2008,04,27,18,06,11.00
2008,04,27,18,07,11.00
2008,04,27,18,08,11.00
2008,04,27,18,09,11.10
2008,04,27,18,10,11.10
2008,04,27,18,11,11.10
2008,04,27,18,12,11.10
2008,04,27,18,13,11.20
2008,04,27,18,14,11.20
2008,04,27,18,15,11.20
2008,04,27,18,16,11.20
2008,04,27,18,17,11.20
2008,04,27,18,18,11.20
2008,04,27,18,19,11.30
2008,04,27,18,20,11.30
2008,04,27,18,21,11.30
2008,04,27,18,22,11.30
2008,04,27,18,23,11.30
2008,04,27,18,24,11.30
2008,04,27,18,25,11.30
2008,04,27,18,26,11.30
2008,04,27,18,27,11.30
2008,04,27,18,28,11.30
2008,04,27,18,29,11.30
2008,04,27,18,30,11.20
2008,04,27,18,31,11.20
2008,04,27,18,32,11.20
2008,04,27,18,33,11.20
2008,04,27,18,34,11.20
2008,04,27,18,35,11.20
2008,04,27,18,36,11.20
2008,04,27,18,37,11.30
2008,04,27,18,38,11.30
2008,04,27,18,39,11.30
2008,04,27,18,40,11.30
2008,04,27,18,41,11.30
2008,04,27,18,42,11.30
2008,04,27,18,43,11.30
2008,04,27,18,44,11.30
2008,04,27,18,45,11.30
2008,04,27,18,46,11.30
2008,04,27,18,47,11.30
2008,04,27,18,48,11.30
2008,04,27,18,49,11.30
2008,04,27,18,50,11.20
2008,04,27,18,51,11.20
2008,04,27,18,52,11.20
2008,04,27,18,53,11.20
2008,04,27,18,54,11.20
2008,04,27,18,55,11.20
2008,04,27,18,56,11.20
2008,04,27,18,57,11.20
2008,04,27,18,58,11.20
2008,04,27,18,59,11.20
2008,04,27,19,00,11.20
2008,04,27,19,01,11.20
2008,04,27,19,02,11.20
2008,04,27,19,03,11.20
2008,04,27,19,04,11.20
2008,04,27,19,05,11.20
2008,04,27,19,06,11.20
2008,04,27,19,07,11.20
2008,04,27,19,08,11.20
2008,04,27,19,09,11.20
2008,04,27,19,10,11.20
2008,04,27,19,11,11.20
2008,04,27,19,12,11.30
2008,04,27,19,13,11.30
2008,04,27,19,14,11.30
2008,04,27,19,15,11.30
2008,04,27,19,16,11.30
2008,04,27,19,17,11.30
2008,04,27,19,18,11.30
2008,04,27,19,19,11.30
2008,04,27,19,20,11.30
2008,04,27,19,21,11.30
2008,04,27,19,22,11.30
2008,04,27,19,23,11.30
2008,04,27,19,24,11.30
2008,04,27,19,25,11.30
2008,04,27,19,26,11.30
2008,04,27,19,27,11.30
2008,04,27,19,28,11.30
2008,04,27,19,29,11.30
2008,04,27,19,30,11.30
2008,04,27,19,31,11.30
2008,04,27,19,32,11.30
2008,04,27,19,33,11.30
2008,04,27,19,34,11.30
2008,04,27,19,35,11.30
2008,04,27,19,36,11.40
2008,04,27,19,37,11.40
2008,04,27,19,38,11.40
2008,04,27,19,39,11.40
2008,04,27,19,40,11.40
2008,04,27,19,41,11.40
2008,04,27,19,42,11.40
2008,04,27,19,43,11.30
2008,04,27,19,44,11.30
2008,04,27,19,45,11.30
2008,04,27,19,46,11.30
2008,04,27,19,47,11.30
2008,04,27,19,48,11.30
2008,04,27,19,49,11.30
2008,04,27,19,50,11.30
2008,04,27,19,51,11.20
2008,04,27,19,52,11.20
2008,04,27,19,53,11.20
2008,04,27,19,54,11.20
2008,04,27,19,55,11.20
2008,04,27,19,56,11.20
2008,04,27,19,57,11.10
2008,04,27,19,58,11.10
2008,04,27,19,59,11.10
2008,04,27,20,00,11.10
2008,04,27,20,01,11.10
2008,04,27,20,02,11.10
2008,04,27,20,03,11.10
2008,04,27,20,04,11.10
2008,04,27,20,05,11.10
2008,04,27,20,06,11.10
2008,04,27,20,07,11.10
2008,04,27,20,08,11.10
2008,04,27,20,09,11.00
2008,04,27,20,10,11.00
2008,04,27,20,11,11.00
2008,04,27,20,12,11.00
2008,04,27,20,13,11.00
2008,04,27,20,14,10.90
2008,04,27,20,15,10.90
2008,04,27,20,16,10.90
2008,04,27,20,17,10.90
2008,04,27,20,18,10.90
2008,04,27,20,19,10.90
2008,04,27,20,20,10.90
2008,04,27,20,21,10.90
2008,04,27,20,22,10.90
2008,04,27,20,23,10.90
2008,04,27,20,24,10.90
2008,04,27,20,25,10.90
2008,04,27,20,26,10.90
2008,04,27,20,27,10.80
2008,04,27,20,28,10.80
2008,04,27,20,29,10.80
2008,04,27,20,30,10.80
2008,04,27,20,31,10.80
2008,04,27,20,32,10.80
2008,04,27,20,33,10.80
2008,04,27,20,34,10.80
2008,04,27,20,35,10.70
2008,04,27,20,36,10.70
2008,04,27,20,37,10.70
2008,04,27,20,38,10.70
2008,04,27,20,39,10.70
2008,04,27,20,40,10.70
2008,04,27,20,41,10.70
2008,04,27,20,42,10.70
2008,04,27,20,43,10.60
2008,04,27,20,44,10.60
2008,04,27,20,45,10.60
2008,04,27,20,46,10.60
2008,04,27,20,47,10.60
2008,04,27,20,48,10.60
2008,04,27,20,49,10.50
2008,04,27,20,50,10.50
2008,04,27,20,51,10.50
2008,04,27,20,52,10.40
2008,04,27,20,53,10.40
2008,04,27,20,54,10.40
2008,04,27,20,55,10.40
2008,04,27,20,56,10.40
2008,04,27,20,57,10.30
2008,04,27,20,58,10.30
2008,04,27,20,59,10.30
2008,04,27,21,00,10.30
2008,04,27,21,01,10.30
2008,04,27,21,02,10.30
2008,04,27,21,03,10.20
2008,04,27,21,04,10.20
2008,04,27,21,05,10.20
2008,04,27,21,06,10.20
2008,04,27,21,07,10.20
2008,04,27,21,08,10.10
2008,04,27,21,09,10.10
2008,04,27,21,10,10.10
2008,04,27,21,11,10.10
2008,04,27,21,12,10.00
2008,04,27,21,13,10.00
2008,04,27,21,14,9.90
2008,04,27,21,15,9.90
2008,04,27,21,16,9.90
2008,04,27,21,17,9.90
2008,04,27,21,18,9.80
2008,04,27,21,19,9.80
2008,04,27,21,20,9.80
2008,04,27,21,21,9.80
2008,04,27,21,22,9.70
2008,04,27,21,23,9.70
2008,04,27,21,24,9.70
2008,04,27,21,25,9.70
2008,04,27,21,26,9.70
2008,04,27,21,27,9.60
2008,04,27,21,28,9.60
2008,04,27,21,29,9.60
2008,04,27,21,30,9.60
2008,04,27,21,31,9.60
2008,04,27,21,32,9.50
2008,04,27,21,33,9.50
2008,04,27,21,34,9.50
2008,04,27,21,35,9.50
2008,04,27,21,36,9.40
2008,04,27,21,37,9.40
2008,04,27,21,38,9.40
2008,04,27,21,39,9.40
2008,04,27,21,40,9.40
2008,04,27,21,41,9.30
2008,04,27,21,42,9.30
2008,04,27,21,43,9.30
2008,04,27,21,44,9.30
2008,04,27,21,45,9.30
2008,04,27,21,46,9.30
2008,04,27,21,47,9.30
2008,04,27,21,48,9.30
2008,04,27,21,49,9.30
2008,04,27,21,50,9.30
2008,04,27,21,51,9.30
2008,04,27,21,52,9.30
2008,04,27,21,53,9.30
2008,04,27,21,54,9.30
2008,04,27,21,55,9.20
2008,04,27,21,56,9.20
2008,04,27,21,57,9.20
2008,04,27,21,58,9.20
2008,04,27,21,59,9.20
2008,04,27,22,00,9.20
2008,04,27,22,01,9.20
2008,04,27,22,02,9.20
2008,04,27,22,03,9.20
2008,04,27,22,04,9.20
2008,04,27,22,05,9.20
2008,04,27,22,06,9.20
2008,04,27,22,07,9.20
2008,04,27,22,08,9.20
2008,04,27,22,09,9.20
2008,04,27,22,10,9.20
2008,04,27,22,11,9.20
2008,04,27,22,12,9.20
2008,04,27,22,13,9.20
2008,04,27,22,14,9.20
2008,04,27,22,15,9.20
2008,04,27,22,16,9.20
2008,04,27,22,17,9.20
2008,04,27,22,18,9.20
2008,04,27,22,19,9.20
2008,04,27,22,20,9.30
2008,04,27,22,21,9.30
2008,04,27,22,22,9.30
2008,04,27,22,23,9.30
2008,04,27,22,24,9.30
2008,04,27,22,25,9.30
2008,04,27,22,26,9.30
2008,04,27,22,27,9.30
2008,04,27,22,28,9.30
2008,04,27,22,29,9.30
2008,04,27,22,30,9.30
2008,04,27,22,31,9.30
2008,04,27,22,32,9.30
2008,04,27,22,33,9.30
2008,04,27,22,34,9.30
2008,04,27,22,35,9.30
2008,04,27,22,36,9.30
2008,04,27,22,37,9.30
2008,04,27,22,38,9.30
2008,04,27,22,39,9.30
2008,04,27,22,40,9.30
2008,04,27,22,41,9.30
2008,04,27,22,42,9.30
2008,04,27,22,43,9.30
2008,04,27,22,44,9.20
2008,04,27,22,45,9.20
2008,04,27,22,46,9.20
2008,04,27,22,47,9.20
2008,04,27,22,48,9.20
2008,04,27,22,49,9.20
2008,04,27,22,50,9.20
2008,04,27,22,51,9.20
2008,04,27,22,52,9.20
2008,04,27,22,53,9.20
2008,04,27,22,54,9.20
2008,04,27,22,55,9.20
2008,04,27,22,56,9.20
2008,04,27,22,57,9.20
2008,04,27,22,58,9.20
2008,04,27,22,59,9.20
2008,04,27,23,00,9.20
2008,04,27,23,01,9.20
2008,04,27,23,02,9.20
2008,04,27,23,03,9.20
2008,04,27,23,04,9.20
2008,04,27,23,05,9.20
2008,04,27,23,06,9.20
2008,04,27,23,07,9.20
2008,04,27,23,08,9.20
2008,04,27,23,09,9.20
2008,04,27,23,10,9.20
2008,04,27,23,11,9.20
2008,04,27,23,12,9.20
2008,04,27,23,13,9.20
2008,04,27,23,14,9.20
2008,04,27,23,15,9.20
2008,04,27,23,16,9.20
2008,04,27,23,17,9.20
2008,04,27,23,18,9.20
2008,04,27,23,19,9.20
2008,04,27,23,20,9.20
2008,04,27,23,21,9.20
2008,04,27,23,22,9.10
2008,04,27,23,23,9.10
2008,04,27,23,24,9.10
2008,04,27,23,25,9.10
2008,04,27,23,26,9.10
2008,04,27,23,27,9.10
2008,04,27,23,28,9.10
2008,04,27,23,29,9.10
2008,04,27,23,30,9.10
2008,04,27,23,31,9.10
2008,04,27,23,32,9.10
2008,04,27,23,33,9.00
2008,04,27,23,34,9.00
2008,04,27,23,35,9.00
2008,04,27,23,36,9.00
2008,04,27,23,37,9.00
2008,04,27,23,38,9.00
2008,04,27,23,39,9.00
2008,04,27,23,40,9.00
2008,04,27,23,41,9.00
2008,04,27,23,42,9.00
2008,04,27,23,43,8.90
2008,04,27,23,44,9.00
2008,04,27,23,45,8.90
2008,04,27,23,46,8.90
2008,04,27,23,47,8.90
2008,04,27,23,48,8.90
2008,04,27,23,49,8.90
2008,04,27,23,50,8.90
2008,04,27,23,51,8.90
2008,04,27,23,52,8.90
2008,04,27,23,53,8.80
2008,04,27,23,54,8.80
2008,04,27,23,55,8.80
2008,04,27,23,56,8.80
2008,04,27,23,57,8.80
2008,04,27,23,58,8.80
2008,04,27,23,59,8.80
